GOES 10 [-]

Last updated on Fri Dec 29 2023 00:02:21 GMT+0000 (Coordinated Universal Time)

1 24786U 97019A 23361.85637883 -.00000297 00000+0 00000+0 0 9993 2 24786 12.0603 27.2091 0029954 215.4750 313.9492 0.99127870 97128

Satellite not in orbit

GOES 10 [-]